Вернуться в каталог

FENGYUN 1C DEB *

АктивенPO
NORAD 47013·DEBRIS·🇨🇳 China

Запущен May 10, 1999 с Taiyuan Satellite Launch Center

Loading…

Ближайшие Пролёты (ближайшие 24 часа)

TLE

УстаревающийSource: Space-Track

Эпоха: Sep 4, 2026, 21:18 UTC

1 47013U 99025FAP 26247.88774666  .00001549  00000-0  64570-3 0  9997
2 47013  98.0633 301.7526 0057281  95.6132 265.1586 14.26626688770522

Отслеживайте FENGYUN 1C DEB * в реальном времени с AllMySat

Download on the App Store